Flag for Ireland Weather past 2 weeks in Dundalk, Ireland

Now
53 °F

Light rain. Overcast.


Feels Like: 47 °F
Forecast: 54 / 62 °F
Wind: 22 mph from Southwest

Location: Glenanne

Current Time: Aug 4, 2015 at 2:55:23 AM

Latest Report: Aug 4, 2015 at 2:00 AM


Visibility: 10 mi

Pressure: 29.41 "Hg

Humidity: 97%

Dew point: 52 °F

Location of DundalkLocation

Historic Weather in Dundalk — Graph

°F

Dundalk temperature yesterday

Maximum temperature yesterday: 63 °F (at 4:00 PM)
Minimum temperature yesterday: 54 °F (at 11:00 PM)
Average temperature yesterday: 59 °F

Past Weeks' High & Low Weather Summary

 TemperatureHumidityPressure
High66 °F (Jul 20, 3:00 PM)100% (Jul 20, 1:00 PM)30.12 "Hg (Jul 20, 1:00 PM)
Low45 °F (Jul 25, 6:00 AM)56% (Jul 23, 2:00 PM)29.32 "Hg (Jul 26, 6:00 PM)
Average54 °F87%29.79 "Hg
* Reported Jul 20 1:00 AM — Aug 4 1:00 AM, Dundalk, Weather by CustomWeather, © 2015

Note: Actual official high and low records may vary slightly from our data, if they occured in-between our weather recording intervals... More about our weather records

Advertising

Dundalk weather history for previous 24 hours

 ConditionsComfort  
Time TempWeatherWind HumidityBarometerVisibility
1:00 AM
Tue, Aug 4
53 °FCool.23 mph96%29.41 "Hg9 mi
12:00 AM52 °FRain. Overcast.24 mph94%29.44 "Hg7 mi
11:00 PM
Mon, Aug 3
54 °FCool.22 mph80%29.47 "Hg14 mi
9:00 PM57 °FCool.18 mph72%29.47 "Hg19 mi
8:00 PM58 °FCool.20 mph67%29.50 "Hg19 mi
7:00 PM60 °FCool.24 mph63%29.50 "Hg19 mi
6:00 PM61 °FCool.23 mph61%29.50 "Hg19 mi
5:00 PM63 °FMild.21 mph60%29.50 "Hg22 mi
4:00 PM63 °FMild.23 mph65%29.54 "Hg14 mi
3:00 PM63 °FMild.20 mph67%29.57 "Hg17 mi
2:00 PM62 °FCool.17 mph70%29.58 "Hg22 mi
1:00 PM61 °FCool.16 mph70%29.60 "Hg14 mi
12:00 PM61 °FCool.13 mph76%29.59 "Hg15 mi
11:00 AM58 °FCool.16 mph79%29.59 "Hg13 mi
10:00 AM59 °FCool.13 mph83%29.57 "Hg19 mi
9:00 AM56 °FCool.13 mph91%29.55 "Hg17 mi
8:00 AM55 °FCool.13 mph91%29.53 "Hg31 mi
7:00 AM55 °FCool.10 mph97%29.50 "Hg28 mi
6:00 AM58 °FDrizzle. Cloudy.15 mph100%29.44 "Hg6 mi
3:00 AM57 °FCool.17 mph100%29.47 "Hg2 mi
2:00 AM57 °FCool.20 mph100%29.50 "Hg6 mi
Weather by CustomWeather, © 2015

See weather overviewHow to use our weather pages